NOAA 16 DEB

Satellite information

Favourite Embed

Satellite Type and Status

DEBRISIN ORBIT

Key statistics

Satellite NOAA 16 DEB at a glance.

Uptime

9156

Days in orbit

Revolutions

≈ 14.1

Per day

Orbit

SSO

Sun Synchronous Orbit

Inclination

98.6

Latest

Satellite identification and parameters

Extended collection of information and parameters for NOAA 16 DEB.

Object identification

Identified? True

Debris? True

Object name: NOAA 16 DEB

International designator: 2000-055P

Object number (NORAD): 41056

Object ID (CCSDS): 41056

Country: UNITED STATES OF AMERICA (US)

Current information (Y/N): Y

RCS size: SMALL

Orbital parameters

Period: 101.897 minutes

Inclination: 98.5558 deg

SMA: 7226.597 km

Apoapsis: 861.693 km

Periapsis: 835.232 km

RAAN: 292.5466 deg

Eccentricy: 0.00183082

Argument of periapsis: 97.4152 deg

Mean anomaly: 262.9102 deg

Mean motion: 14.13194682 rev/day

Mean motion (dot): 0.00001318 rev/day2

B* drag term: 0.00072509853 1/REarth

Two-line elements (TLE)

Creation date: Oct. 15, 2025, 2:21 a.m.

Reference frame: TEME

Reference center: EARTH

Epoch: Oct. 14, 2025, 12:23 p.m. UTC

TLE line 0: 0 NOAA 16 DEB

TLE line 1: 1 41056U 00055P 25287.51642601 .00001318 00000-0 72510-3 0 9996

TLE line 2: 2 41056 98.5558 292.5466 0018308 97.4152 262.9102 14.13194682508789

Live tracking on map

Real-time ground track for satellite NOAA 16 DEB.

In-orbit conjunctions

A list of the most updated potential collisions computed for object NOAA 16 DEB.

Target Orbit TCA Probability of collision Miss distance Type
FENGYUN 1C DEB SSO 2025-09-29 11:00:35 0.0004859862 119.0 (m) DEBRIS
METEOR 2-5 LEO 2024-05-29 20:36:54 0.0001525694 855.0 (m) PAYLOAD

Associated space launch

The NOAA K, L and M POES satellites begin the fifth generation of improved environmental monitoring in support of NOAA missions. The instrument payload has significant improvements and additions/deletions. The instrument changes have effected the spacecraft subsystems and data formats.

NOAA 16 DEB was lifted into orbit during the mission ‘Titan II SLV | NOAA 16’, on board a Titan II SLV space rocket.

The launch took place on Sept. 21, 2000, 10:22 a.m. from Space Launch Complex 4W.

For more information about the launch, click the button.

Launch to space Titan II SLV | NOAA 16
Titan II SLV | NOAA 16

Agency: N/A

Status: Launch Successful

Launch date: Sept. 21, 2000, 10:22 a.m. UTC

Rocket: Titan II SLV

Launch pad: Space Launch Complex 4W

Location: Vandenberg SFB, CA, USA

...

Latest news about this satellite

There are no fresh news available about this satellite. Check back as we update our databases every day.


Newsletter sign-up

Weekly statistics, charts and insights to help you stay on top of the space industry.